CZ-4C R/B

Last updated on Sun Aug 24 2025 00:02:08 GMT+0000 (Coordinated Universal Time)

1 65234U 25177B 25230.04433057 -.00016443 00000+0 -31371-2 0 9996 2 65234 10.9947 108.8674 0151415 8.0992 352.1641 14.57479190 99

Satellite not in orbit